Weather reports worldwide

Advertisment
Thorney Island, United Kingdom (3872): temperature & dewpoint: 14.06.2019 05:00:00 - 20.06.2019 05:00:00 (BST)Thorney Island, United Kingdom (3872): temperature -20cm & temperature -100cm: 14.06.2019 05:00:00 - 20.06.2019 05:00:00 (BST)Thorney Island, United Kingdom (3872): wind speed & gusts: 14.06.2019 05:00:00 - 20.06.2019 05:00:00 (BST)Thorney Island, United Kingdom (3872): wind direction: 14.06.2019 05:00:00 - 20.06.2019 05:00:00 (BST)Thorney Island, United Kingdom (3872): reduced air pressure: 14.06.2019 05:00:00 - 20.06.2019 05:00:00 (BST)Thorney Island, United Kingdom (3872): visibility: 14.06.2019 05:00:00 - 20.06.2019 05:00:00 (BST)Thorney Island, United Kingdom (3872): precipitation: 14.06.2019 05:00:00 - 20.06.2019 05:00:00 (BST)
Date & Time tt [°C] td [°C] tt -20cm [°C] tt -100cm [°C] ff [km/h] ff [kn] fx [km/h] fx [kn] dd ppp [hPa] vv [km] rr [mm]
20.06.2019 05:00:00 11,1 9,8 - - 11 6 - - WNW 1011,5 40 -
20.06.2019 04:00:00 11,6 9,5 - - 11 6 - - WNW 1011,2 50 0,0
20.06.2019 03:00:00 12,6 9,6 - - 13 7 - - W 1011,0 45 0,0
20.06.2019 02:00:00 13,4 9,7 - - 15 8 - - W 1010,8 45 0,0
20.06.2019 01:00:00 14,2 11,1 - - 18 10 - - W 1010,8 50 0,0
20.06.2019 00:00:00 14,7 13,8 - - 13 7 - - W 1010,4 26 0,0
19.06.2019 23:00:00 14,7 13,8 - - 8 4 - - WNW 1010,1 21 0,0
19.06.2019 22:00:00 15,4 14,2 - - 13 7 - - W 1009,8 30 0,0
19.06.2019 21:00:00 15,5 14,0 - - 13 7 - - WSW 1009,3 14 0,0
19.06.2019 20:00:00 16,0 14,2 - - 13 7 - - W 1009,2 35 0,0
19.06.2019 19:00:00 16,6 13,6 - - 22 12 - - W 1008,8 40 0,0
19.06.2019 18:00:00 18,3 15,3 - - 22 12 - - SW 1008,3 23 0,0
19.06.2019 17:00:00 18,1 15,0 - - 13 7 - - SSW 1008,3 22 0,0
19.06.2019 16:00:00 18,4 15,4 - - 15 8 - - SSW 1008,5 16 0,0
19.06.2019 15:00:00 18,3 15,4 - - 9 5 - - SW 1008,5 11 0,0
19.06.2019 14:00:00 18,3 15,1 - - 8 4 - - W 1008,5 19 0,0
19.06.2019 13:00:00 17,9 13,8 - - 8 4 - - NW 1008,3 24 0,0
19.06.2019 12:00:00 18,3 14,6 - - 11 6 - - NNW 1007,9 19 0,0
19.06.2019 11:00:00 17,0 14,4 - - 8 4 - - NNW 1007,8 14 0,0
19.06.2019 10:00:00 16,6 14,1 15,7 14,0 8 4 - - NNW 1007,5 15 0,0
19.06.2019 09:00:00 16,3 14,3 - - 4 2 - - N 1007,5 9 0,0
19.06.2019 08:00:00 15,0 14,2 - - 4 2 - - WNW 1007,3 8 0,0
19.06.2019 07:00:00 14,3 13,5 - - 5 3 - - NW 1007,0 8 0,0
19.06.2019 06:00:00 14,2 13,5 - - 5 3 - - NW 1006,7 5 0,0
19.06.2019 05:00:00 14,5 13,8 - - 11 6 - - NW 1006,6 5 0,0
19.06.2019 04:00:00 14,5 13,6 - - 11 6 - - N 1006,8 7 0,0
19.06.2019 03:00:00 14,5 13,9 - - 11 6 - - N 1007,0 8 0,0
19.06.2019 02:00:00 14,5 13,7 - - 5 3 - - NNE 1007,8 4,7 0,0
19.06.2019 01:00:00 14,8 14,3 - - 5 3 - - NW 1008,6 4,6 0,0
19.06.2019 00:00:00 15,0 14,2 - - 8 4 - - N 1008,6 8 0,0
18.06.2019 23:00:00 15,6 14,7 - - 13 7 - - NNE 1009,2 10 0,0
18.06.2019 22:00:00 15,8 14,9 - - 13 7 - - NNE 1009,9 12 0,0
18.06.2019 21:00:00 16,0 15,1 - - 8 4 - - N 1010,5 12 0,0
18.06.2019 20:00:00 16,3 15,2 - - 9 5 - - N 1010,5 21 0,0
18.06.2019 19:00:00 16,3 15,1 - - 9 5 - - NNE 1010,7 22 0,0
18.06.2019 18:00:00 16,4 14,8 - - 11 6 - - NNE 1011,3 23 0,0
18.06.2019 17:00:00 16,6 15,5 - - 15 8 - - NNE 1011,3 35 1,2
18.06.2019 16:00:00 15,7 14,8 - - 9 5 - - NW 1013,0 4,3 4,8
18.06.2019 15:00:00 17,3 14,7 - - 8 4 - - NNE 1012,9 40 0,0
18.06.2019 14:00:00 16,8 14,2 - - 11 6 - - ENE 1013,1 27 0,0
18.06.2019 13:00:00 15,2 13,6 - - 13 7 - - ENE 1013,6 15 0,8
18.06.2019 12:00:00 14,2 12,4 - - 15 8 - - E 1014,2 40 0,4
18.06.2019 11:00:00 14,4 12,2 - - 4 2 - - SE 1014,6 13 1,0
18.06.2019 10:00:00 15,2 12,1 15,7 14,0 15 8 - - SSW 1015,9 26 0,0
18.06.2019 09:00:00 16,5 13,1 - - 8 4 - - E 1015,4 22 0,0
18.06.2019 08:00:00 14,3 12,9 - - 5 3 - - E 1015,5 18 0,0
18.06.2019 07:00:00 12,2 11,5 - - 8 4 - - NE 1015,4 14 0,0
18.06.2019 06:00:00 10,9 10,4 - - 4 2 - - ENE 1015,6 11 0,0
18.06.2019 05:00:00 10,8 10,3 - - 5 3 - - NE 1015,7 11 0,0
18.06.2019 04:00:00 10,8 10,2 - - 4 2 - - NE 1016,0 13 0,0
18.06.2019 03:00:00 10,2 9,3 - - 2 1 - - E 1016,1 23 0,0
18.06.2019 02:00:00 10,6 9,9 - - 5 3 - - NNE 1016,6 16 0,0
18.06.2019 01:00:00 10,8 9,7 - - 5 3 - - NNE 1016,9 23 0,0
18.06.2019 00:00:00 12,1 10,6 - - 8 4 - - W 1017,2 30 0,0
17.06.2019 23:00:00 12,9 10,2 - - 9 5 - - WSW 1017,4 40 0,0
17.06.2019 22:00:00 14,1 11,9 - - 16 9 - - SSW 1017,6 30 0,0
17.06.2019 21:00:00 14,9 11,8 - - 18 10 - - SSW 1017,3 45 0,0
17.06.2019 20:00:00 16,6 11,7 - - 18 10 - - SSW 1017,0 45 0,0
17.06.2019 19:00:00 15,6 12,1 - - 16 9 - - SSW 1017,4 35 0,0
17.06.2019 18:00:00 16,7 13,1 - - 26 14 - - SSW 1017,6 28 0,0
17.06.2019 17:00:00 17,0 12,5 - - 24 13 - - SSW 1017,8 29 0,0
17.06.2019 16:00:00 17,5 12,5 - - 22 12 - - S 1018,1 19 0,0
17.06.2019 15:00:00 18,0 12,4 - - 21 11 - - SSW 1018,4 15 0,0
17.06.2019 14:00:00 17,2 11,7 - - 22 12 - - S 1018,5 30 0,0
17.06.2019 13:00:00 17,4 14,0 - - 22 12 - - S 1018,7 22 0,0
17.06.2019 12:00:00 17,5 14,0 - - 21 11 - - SSW 1018,8 20 0,0
17.06.2019 11:00:00 16,6 13,4 - - 22 12 - - SSW 1018,9 29 0,0
17.06.2019 10:00:00 16,5 13,5 15,2 13,9 21 11 - - SSW 1019,0 35 0,0
17.06.2019 09:00:00 16,1 13,2 - - 16 9 - - SSW 1019,1 21 0,0
17.06.2019 08:00:00 15,4 12,4 - - 15 8 - - SW 1019,1 25 0,0
17.06.2019 07:00:00 14,6 11,8 - - 18 10 - - SSW 1018,6 40 0,0
17.06.2019 06:00:00 14,3 11,8 - - 21 11 - - SSW 1018,5 40 0,0
17.06.2019 05:00:00 13,7 11,8 - - 18 10 - - SSW 1018,4 40 0,0
17.06.2019 04:00:00 14,0 11,9 - - 21 11 - - SSW 1018,4 35 0,0
17.06.2019 03:00:00 14,1 12,0 - - 21 11 - - SSW 1018,6 30 0,0
17.06.2019 02:00:00 14,4 11,9 - - 21 11 - - SSW 1018,9 27 0,0
17.06.2019 01:00:00 14,6 12,1 - - 21 11 - - SSW 1019,1 28 0,0
17.06.2019 00:00:00 14,9 12,0 - - 18 10 - - SW 1019,3 30 0,0
16.06.2019 23:00:00 14,9 11,0 - - 18 10 - - SW 1019,5 30 0,0
16.06.2019 22:00:00 14,9 11,5 - - 16 9 - - SW 1019,4 35 0,0
16.06.2019 21:00:00 15,2 12,0 - - 16 9 - - SW 1019,0 35 0,0
16.06.2019 20:00:00 15,4 12,9 - - 16 9 - - SSW 1019,0 30 0,0
16.06.2019 19:00:00 16,2 11,9 - - 22 12 - - SW 1018,8 45 0,0
16.06.2019 18:00:00 16,3 13,0 - - 24 13 - - SW 1018,8 29 0,0
16.06.2019 17:00:00 16,8 12,5 - - 28 15 - - WSW 1018,7 30 0,0
16.06.2019 16:00:00 16,8 13,0 - - 29 16 - - SW 1018,8 25 0,0
16.06.2019 15:00:00 16,5 13,6 - - 31 17 - - SW 1018,5 27 0,0
16.06.2019 14:00:00 15,4 13,3 - - 29 16 - - SW 1018,4 29 0,0
16.06.2019 13:00:00 15,7 13,8 - - 28 15 - - SW 1018,2 20 0,0
16.06.2019 12:00:00 14,6 13,7 - - 34 18 46 25 SW 1017,7 18 0,0
16.06.2019 11:00:00 14,8 14,2 - - 28 15 - - SW 1017,4 15 0,4
16.06.2019 10:00:00 14,1 13,6 15,2 13,9 35 19 48 26 SSW 1016,9 2,7 2,0
16.06.2019 09:00:00 14,2 13,0 - - 34 18 46 25 SSW 1016,7 4,1 0,2
16.06.2019 08:00:00 14,2 13,0 - - 34 18 46 25 SSW 1016,4 22 0,6
16.06.2019 07:00:00 13,7 12,7 - - 29 16 - - SSW 1016,1 18 0,4
16.06.2019 06:00:00 13,7 11,8 - - 22 12 - - SSW 1016,0 28 0,0
16.06.2019 05:00:00 13,3 11,5 - - 24 13 - - SW 1015,7 40 0,0
16.06.2019 04:00:00 13,4 12,1 - - 18 10 - - SW 1015,5 45 0,0
16.06.2019 03:00:00 12,8 11,3 - - 13 7 - - SW 1015,5 40 0,0
16.06.2019 02:00:00 12,2 10,3 - - 18 10 - - SW 1015,7 45 0,0
16.06.2019 01:00:00 12,4 10,5 - - 21 11 - - SW 1015,7 45 0,0
16.06.2019 00:00:00 12,5 10,6 - - 21 11 - - SW 1015,2 40 0,0
15.06.2019 23:00:00 12,6 10,6 - - 18 10 - - SW 1015,0 45 0,0
15.06.2019 22:00:00 13,2 10,1 - - 13 7 - - SW 1014,6 45 0,0
15.06.2019 21:00:00 13,1 10,3 - - 15 8 - - SW 1014,0 50 0,0
15.06.2019 20:00:00 14,3 12,6 - - 18 10 - - SW 1014,0 35 0,4
15.06.2019 19:00:00 14,4 13,0 - - 26 14 - - SSW 1013,8 24 0,0
15.06.2019 18:00:00 14,6 13,1 - - 24 13 - - SSW 1013,6 22 0,0
15.06.2019 17:00:00 16,3 12,9 - - 31 17 - - S 1013,7 29 0,0
15.06.2019 16:00:00 17,1 13,6 - - 29 16 - - SSW 1013,8 35 0,0
15.06.2019 15:00:00 16,2 12,5 - - 29 16 - - SSW 1013,7 30 0,0
15.06.2019 14:00:00 15,3 12,5 - - 31 17 - - SSW 1013,7 28 0,0
15.06.2019 13:00:00 13,7 12,4 - - 31 17 48 26 SSW 1013,8 24 0,2
15.06.2019 12:00:00 15,7 11,7 - - 28 15 - - SSW 1013,5 29 0,0
15.06.2019 11:00:00 15,5 11,5 - - 31 17 - - SSW 1013,3 35 0,0
15.06.2019 10:00:00 16,1 12,1 15,2 13,7 28 15 - - SSW 1012,9 19 0,0
15.06.2019 09:00:00 15,8 12,2 - - 26 14 - - SSW 1012,7 35 0,0
15.06.2019 08:00:00 14,6 11,9 - - 28 15 - - SSW 1012,5 35 0,0
15.06.2019 07:00:00 14,6 11,4 - - 22 12 - - S 1012,1 45 0,0
15.06.2019 06:00:00 14,0 10,9 - - 13 7 - - SSW 1012,0 45 0,0
15.06.2019 05:00:00 13,3 10,6 - - 16 9 - - SSW 1012,1 30 0,0
15.06.2019 04:00:00 13,2 10,7 - - 16 9 - - SSW 1012,0 35 0,0
15.06.2019 03:00:00 13,7 11,0 - - 16 9 - - SSW 1012,1 45 0,0
15.06.2019 02:00:00 13,5 10,6 - - 16 9 - - SSW 1012,4 45 0,0
15.06.2019 01:00:00 13,7 10,2 - - 16 9 - - SSW 1012,4 50 0,0
15.06.2019 00:00:00 13,5 10,2 - - 16 9 - - SSW 1012,5 50 0,0
14.06.2019 23:00:00 13,7 10,6 - - 15 8 - - SSW 1012,5 45 0,0
14.06.2019 22:00:00 13,9 10,7 - - 13 7 - - SSW 1012,3 40 0,0
14.06.2019 21:00:00 13,9 10,6 - - 18 10 - - SW 1011,9 40 0,0
14.06.2019 20:00:00 14,3 10,7 - - 21 11 - - S 1011,9 30 0,0
14.06.2019 19:00:00 15,8 10,9 - - 21 11 - - SSW 1011,9 30 0,0
14.06.2019 18:00:00 16,2 11,6 - - 24 13 - - SSW 1011,5 45 0,0
14.06.2019 17:00:00 16,5 11,6 - - 28 15 - - SSW 1011,8 20 0,0
14.06.2019 16:00:00 16,5 12,3 - - 28 15 - - SSW 1012,1 27 0,0
14.06.2019 15:00:00 16,7 12,2 - - 34 18 - - SSW 1012,0 50 0,0
14.06.2019 14:00:00 15,8 12,5 - - 29 16 - - SSW 1011,6 35 0,0
14.06.2019 13:00:00 14,8 11,1 - - 31 17 - - SSW 1011,7 26 0,0
14.06.2019 12:00:00 16,2 12,8 - - 31 17 48 26 SSW 1011,5 13 0,0
14.06.2019 11:00:00 14,2 11,4 - - 35 19 48 26 SSW 1011,1 26 0,0
14.06.2019 10:00:00 14,8 12,6 14,9 13,7 28 15 - - SSW 1010,7 23 0,0
14.06.2019 09:00:00 14,4 12,0 - - 31 17 - - SSW 1010,3 35 0,0
14.06.2019 08:00:00 13,8 11,7 - - 31 17 - - SW 1009,9 35 0,0
14.06.2019 07:00:00 13,5 11,8 - - 34 18 48 26 SSW 1009,6 30 0,0
14.06.2019 06:00:00 13,1 11,9 - - 31 17 - - SW 1009,3 8 0,2
14.06.2019 05:00:00 13,3 11,2 - - 29 16 - - SSW 1009,3 35 0,0

tt = temperature
td = dewpoint
tt -20cm = temperature -20cm
tt -100cm = temperature -100cm
ff = wind speed
fx = gusts
dd = wind direction
ppp = reduced air pressure
vv = visibility
rr = precipitation

Next stations